Regional Weather Roundup
Issued by NWS

Home | Current Version | Previous Version | Graphics & Text | Print | Product List | Glossary On
Versions: 1 2 3 4 5 6 7 8 9 10 11 12 13 14 15 16 17 18 19 20 21 22 23 24 25 26 27 28 29 30 31 32 33 34 35 36 37 38 39 40 41 42 43 44 45 46 47 48 49 50
000
ASUS45 KABQ 040210
RWRNM
NEW MEXICO REGIONAL WEATHER ROUNDUP
NATIONAL WEATHER SERVICE ALBUQUERQUE NM
800 PM MDT FRI JUL 03 2015

NOTE: "FAIR" MEANS FEW OR NO CLOUDS BELOW 12,000 FEET AGL WITH NO
       SIGNIFICANT WEATHER OR OBSTRUCTIONS TO VISION.

      THIS PRODUCT IS RELEASED AS TWO VERSIONS.  ONE VERSION NEAR
      THE TOP OF THE HOUR CONTAINING PRELIMINARY DATA FROM ALBUQUERQUE
      AND OTHER STATIONS.  A FINAL VERSION WITH ADDITIONAL DATA IS
      ISSUED ABOUT 10 MINUTES AFTER THE HOUR.

NMZ501-503-504-510>518-040300-
NORTHWEST PLATEAU/NORTHCENTRAL MOUNTAINS

CITY           SKY/WX    TMP DP  RH WIND       PRES   REMARKS
FARMINGTON     TSTM      66  56  70 N28G40    30.09R
LOS ALAMOS     CLOUDY    68  56  66 SW6       30.26R
SANTA FE       CLOUDY    74  52  46 SE5       30.17R
TAOS           CLOUDY    72  46  40 CALM      30.24R
ANGEL FIRE     MOCLDY    62  53  72 NE7       30.35R

$$
NMZ402-403-502-505>509-040300-
WESTCENTRAL MOUNTAINS/SOUTHWEST MOUNTAINS

CITY           SKY/WX    TMP DP  RH WIND       PRES   REMARKS
GALLUP         CLOUDY    73  49  42 S9        30.16R
GRANTS         CLOUDY    78  50  37 SE9       30.16S
SILVER CITY      N/A     79  54  41 NW9       30.08S

$$
NMZ407-409-411-412-040300-
SOUTHERN DESERTS

CITY           SKY/WX    TMP DP  RH WIND       PRES   REMARKS
LORDSBURG      FAIR      90  54  29 W5        29.97R
DEMING         MOCLDY    87  55  33 NE13      29.96R
LAS CRUCES     MOCLDY    83  55  38 E12       30.00R
HOLLOMAN AFB   MOCLDY    81  58  46 NE17      29.99R
ALAMOGORDO     CLOUDY    77  59  53 E14G21    30.01R
T OR C         CLOUDY    81  59  47 N6        30.03R

$$
NMZ519>523-040300-
CENTRAL VALLEYS/CENTRAL HIGHLANDS

CITY           SKY/WX    TMP DP  RH WIND       PRES   REMARKS
ALBUQUERQUE    MOCLDY    79  57  46 SE12      30.08S
DOUBLE EAGLE   MOCLDY    77  55  47 SE15G22   30.12S
MORIARTY ARPT    N/A     73  53  48 E8        30.17S
CLINES CORNERS CLOUDY    65  58  78 E6        30.22R
BELEN          TSTM      79  51  38 NE12G17   30.07F
SOCORRO        FAIR      77  61  56 W5        30.03F

$$
NMZ524>526-539-540-040300-
SOUTHCENTRAL MOUNTAINS

CITY           SKY/WX    TMP DP  RH WIND       PRES   REMARKS
RUIDOSO        NOT AVBL

$$
NMZ527>531-040300-
NORTHEAST HIGHLANDS/NORTHEAST PLAINS

CITY           SKY/WX    TMP DP  RH WIND       PRES   REMARKS
LAS VEGAS      MOCLDY    66  56  70 CALM      30.24R
RATON          CLOUDY    69  56  62 NW8       30.20R
CLAYTON        CLOUDY    67  56  67 SE13      30.09R

$$
NMZ532>537-040300-
EASTCENTRAL PLAINS

CITY           SKY/WX    TMP DP  RH WIND       PRES   REMARKS
TUCUMCARI      CLOUDY    81  59  47 SW5       30.00S
CANNON AFB     CLOUDY    77  61  58 S10       30.04S
CLOVIS AIRPORT CLOUDY    75  55  50 SE7         N/A

$$
NMZ028-029-538-040300-
SOUTHEAST PLAINS

CITY           SKY/WX    TMP DP  RH WIND       PRES   REMARKS
ROSWELL        PTCLDY    81  60  48 SE7       30.00S
ARTESIA        PTCLDY    82  59  44 S5        29.99F
CARLSBAD       MOCLDY    79  64  60 N3        29.96F
HOBBS          CLOUDY    75  64  69 NE5       30.01S


$$



USA.gov is the U.S. government's official web portal to all federal, state and local government web resources and services.